Location: Roanoke
(37.2710°N, 79.9420°W)
Time: 18:16:19
(UTC-05:00)

Transit 2A - All Passes

Search period start: 22 November 2019 00:00
Search period end: 02 December 2019 00:00
Orbit: 602 x 957 km, 66.7° (Epoch: 22 November)

Date Brightness Start Highest point End Pass type
(mag) Time Alt. Az. Time Alt. Az. Time Alt. Az.
22 Nov - 10:11:27 10° SSE 10:15:06 20° ESE 10:18:34 10° ENE daylight
22 Nov - 11:53:08 10° SW 11:58:00 43° WNW 12:02:28 10° NNE daylight
22 Nov - 20:41:06 10° NNW 20:45:30 89° NE 20:50:08 10° SSE night (unlit)
23 Nov - 09:39:05 10° SE 09:41:09 12° ESE 09:43:09 10° E daylight
23 Nov - 11:18:44 10° SW 11:23:51 67° WNW 11:28:31 10° NNE daylight
23 Nov - 20:07:04 10° NNW 20:11:23 55° ENE 20:15:55 10° SE visible
23 Nov - 21:52:13 10° W 21:54:03 12° WSW 21:55:56 10° SW night (unlit)
24 Nov - 10:44:35 10° SSW 10:49:45 80° ESE 10:54:27 10° NNE daylight
24 Nov - 12:31:16 10° WNW 12:33:20 12° NW 12:35:21 10° NNW daylight
24 Nov - 19:33:11 10° N 19:37:13 35° ENE 19:41:26 10° ESE visible
24 Nov - 21:16:51 10° WNW 21:20:06 20° WSW 21:23:28 10° SSW night (unlit)
25 Nov - 10:10:40 10° S 10:15:40 51° ESE 10:20:14 10° NE daylight
25 Nov - 11:55:37 10° W 11:59:00 18° NW 12:02:13 10° N daylight
25 Nov - 18:59:27 10° N 19:03:00 23° NE 19:06:38 10° ESE visible
25 Nov - 20:42:11 10° NW 20:46:06 31° WSW 20:50:14 10° S visible
26 Nov - 09:37:03 10° S 09:41:37 33° ESE 09:45:50 10° NE daylight
26 Nov - 11:20:32 10° WSW 11:24:43 26° NW 11:28:39 10° N daylight
26 Nov - 18:26:00 10° NNE 18:28:42 16° NE 18:31:28 10° E visible
26 Nov - 20:07:47 10° NW 20:12:04 51° WSW 20:16:36 10° S visible
27 Nov - 09:03:47 10° SSE 09:07:36 21° ESE 09:11:11 10° ENE daylight
27 Nov - 10:45:49 10° SW 10:50:31 39° WNW 10:54:52 10° NNE daylight
27 Nov - 17:53:23 10° NE 17:54:20 11° NE 17:55:18 10° ENE visible
27 Nov - 19:33:34 10° NNW 19:37:59 83° WSW 19:42:40 10° SSE visible
28 Nov - 08:31:13 10° SE 08:33:37 13° ESE 08:35:57 10° ENE daylight
28 Nov - 10:11:21 10° SW 10:16:22 60° WNW 10:20:57 10° NNE daylight
28 Nov - 18:59:30 10° NNW 19:03:53 61° ENE 19:08:29 10° SE visible
28 Nov - 20:45:10 10° W 20:46:31 11° WSW 20:47:54 10° WSW visible
29 Nov - 09:37:08 10° SSW 09:42:14 87° ESE 09:46:54 10° NNE daylight
29 Nov - 11:24:24 10° WNW 11:25:53 11° NW 11:27:22 10° NNW daylight
29 Nov - 18:25:35 10° NNW 18:29:43 38° ENE 18:34:03 10° SE visible
29 Nov - 20:09:29 10° WNW 20:12:33 18° WSW 20:15:46 10° SSW visible
30 Nov - 09:03:10 10° SSW 09:08:09 56° ESE 09:12:43 10° NE daylight
30 Nov - 10:48:26 10° W 10:51:32 17° NW 10:54:29 10° N daylight
30 Nov - 17:51:49 10° N 17:55:30 25° NE 17:59:20 10° ESE visible
30 Nov - 19:34:43 10° NW 19:38:34 29° WSW 19:42:38 10° S visible
01 Dec - 08:29:29 10° S 08:34:06 35° ESE 08:38:22 10° NE daylight
01 Dec - 10:13:17 10° WSW 10:17:15 24° NW 10:21:00 10° N daylight
01 Dec - 17:18:16 10° N 17:21:14 17° NE 17:24:16 10° E daylight
01 Dec - 19:00:17 10° NW 19:04:32 46° WSW 19:09:04 10° S visible
